STARLINK-32221, 60342

Orbit data source: Space-Track

STARLINK-32221, 60342 is a payload satellite owned by SpaceX/Seattle (US) in LEO that was launched on Fri, 02 Aug 2024 UTC via an FALCON 9 launch vehicle from the Air Force Eastern Test Range (AFETR). Payload-class satellites include a variety of spacecraft equipped with specific instruments for various scientific and technological missions. These include communications satellites like Starlink; space stations such as the ISS; scientific satellites like the Hubble; Earth observation satellites from companies like Planet Labs, Umbra, and HawkEye 360; GPS; miniature CubeSats for education and research; and military/defense satellites.

Loading next visibility...
Identifier
60342, 2024-136P
Orbit
LEO
Last TLE update
2 days ago
Origin
Manufacturer
SpaceX/Seattle
Mission
Operational Commercial Communications
Bus & Motor
STARLINK V2M, Unknown motor
Mass
730 kg wet, ~700 kg dry
Launch date (UTC)
2024-08-02 (9 months ago)
Launch vehicle
FALCON 9
Launch site
Air Force Eastern Test Range (AFETR)
Object type
Payload
Rocket body
Debris
Shape & HBR
Box + 2 Pan, 29 m
Radar Cross Section
33.884 m², Large (>1 m²)

Expand to show TLE details & history

TLE from 2 days ago
0 STARLINK-32221
1 60342U 24136P   25118.92722601 -.00000295  00000-0  21787-5 0  9994
2 60342  53.1609  97.6613 0001307  80.1087 280.0061 15.30188205 41474
Epoch: 2025-04-28T22:15Z
Definitive object data (Epoch: 2025-04-28T22:15:12.327Z)
Latitude
-0.00003°
Longitude
-93.27431°
Altitude
475.995 km
Speed
7.629 km/s
True Right ascension
06h 30m 38s
True Declination
0° 00' 00"
Sunlit
Object was in daylight at TLE epoch
Visualization TLE readout
Latitude
51.9197°
Longitude
7.70266°
Altitude
480.648 km
Speed
7.632 km/s
Apparent Right ascension
09h 25m 35s
Apparent Declination
12° 59' 40"
Sunlit
Object is in full shadow
Visualization observer readout
Local Sidereal Time
18:18:51
Azimuth
310.307° NW
Elevation
-21.617°
Doppler factor
1
Orbital elements
Apogee altitude
476.402 km
Perigee altitude
474.611 km
Semi-major axis
6,853.644 km
Eccentricity
0.0001307
Inclination
53.1609°
RAAN
97.6613°
Arg. of periapsis
80.1087°
True anomaly
279.99135°
Mean anomaly
280.0061°
Eccentric anomaly
279.99873°
Mean motion
3.82526 °/min
BSTAR
0.0000021787
Orbital period
94.11 mins
Loading maneuver chart data...
Loading SW <> Apogee altitude chart data...
Loading historical data...
Loading historical data...
Loading historical data...
Loading historical data...
Loading historical data...
Loading historical data...
Loading historical data...

STARLINK-32221 Visibility forecast

Observer location: undefined°, undefined°

Span
Click to sort rows by Start time (UTC) header in descending order
Start Az.
Max El. time (UTC)
Max El. Az.
Max El.
End time (UTC)
End Az.
7 mins2025-05-01 00:34:48.046Z220.859° SW2025-05-01 00:38:48.046Z88.75° E41.153°2025-05-01 00:41:48.046Z54.459° ENE
4 mins2025-05-01 02:14:48.046Z298.248° NW2025-05-01 02:16:48.046Z340.857° N19.453°2025-05-01 02:18:48.046Z19.125° NNE
4 mins2025-05-01 05:32:48.046Z342.69° N2025-05-01 05:34:48.046Z16.789° NNE14.616°2025-05-01 05:36:48.046Z51.569° ENE
6 mins2025-05-01 07:10:48.046Z320.575° NNW2025-05-01 07:13:48.046Z68.553° E38.974°2025-05-01 07:16:48.046Z116.779° SE
|